| time (UTC) | temp C | wind direction | speed KPH | gust KPH | rain 1hr cm | rain 24hr cm | rain mn cm | humidity % | barometer mb |
| 20260504151037 | 18 | 113 | 4.8 | 12.9 | 0.00 | 0.00 | 0.00 | 38 | 999.4 |
| 20260504141017 | 16 | 135 | 4.8 | 16.1 | 0.00 | 0.00 | 0.00 | 44 | 999.7 |
| 20260504081016 | 6 | 0.0 | 0.0 | 0.00 | 0.00 | 0.00 | 73 | 1000.4 | |
| 20260504045016 | 7 | 0.0 | 0.0 | 0.00 | 0.00 | 0.00 | 71 | 1000.0 | |
| 20260504044016 | 7 | 0.0 | 0.0 | 0.00 | 0.00 | 0.00 | 73 | 999.9 | |
| 20260504043016 | 7 | 0.0 | 0.0 | 0.00 | 0.00 | 0.00 | 74 | 999.9 | |
| 20260504042016 | 7 | 0.0 | 0.0 | 0.00 | 0.00 | 0.00 | 75 | 999.9 | |
| 20260504041035 | 7 | 0.0 | 0.0 | 0.00 | 0.00 | 0.00 | 76 | 999.7 | |
| 20260504040016 | 7 | 0.0 | 0.0 | 0.00 | 0.00 | 0.00 | 75 | 999.6 | |
| 20260504035017 | 7 | 0.0 | 0.0 | 0.00 | 0.00 | 0.00 | 74 | 999.5 | |
| 20260504034017 | 7 | 0.0 | 0.0 | 0.00 | 0.00 | 0.00 | 73 | 999.4 | |
| 20260504033017 | 7 | 0.0 | 0.0 | 0.00 | 0.00 | 0.00 | 73 | 999.3 | |
| 20260504032017 | 8 | 0.0 | 0.0 | 0.00 | 0.00 | 0.00 | 71 | 999.3 | |
| 20260504031017 | 8 | 0.0 | 0.0 | 0.00 | 0.00 | 0.00 | 69 | 999.3 | |
| 20260504030017 | 8 | 0.0 | 0.0 | 0.00 | 0.00 | 0.00 | 67 | 999.2 | |
| 20260504025017 | 8 | 0.0 | 0.0 | 0.00 | 0.00 | 0.00 | 61 | 999.3 | |
| 20260504024017 | 8 | 0.0 | 0.0 | 0.00 | 0.00 | 0.00 | 60 | 999.3 | |
| 20260504023037 | 9 | 0.0 | 0.0 | 0.00 | 0.00 | 0.00 | 59 | 999.3 | |
| 20260504022037 | 9 | 0.0 | 0.0 | 0.00 | 0.00 | 0.00 | 58 | 999.3 | |
| 20260504021017 | 9 | 0.0 | 0.0 | 0.00 | 0.00 | 0.00 | 60 | 999.3 | |
| 20260504020017 | 10 | 0.0 | 0.0 | 0.00 | 0.00 | 0.00 | 60 | 999.1 | |
| 20260504015017 | 10 | 0.0 | 0.0 | 0.00 | 0.00 | 0.00 | 59 | 999.3 | |
| 20260504014017 | 10 | 0.0 | 0.0 | 0.00 | 0.00 | 0.00 | 57 | 999.2 | |
| 20260504013016 | 10 | 0.0 | 0.0 | 0.00 | 0.00 | 0.00 | 54 | 999.2 | |
| 20260504012037 | 10 | 0.0 | 0.0 | 0.00 | 0.00 | 0.00 | 52 | 999.1 | |
| 20260504011037 | 11 | 0.0 | 0.0 | 0.00 | 0.00 | 0.00 | 52 | 999.0 | |
| 20260504010017 | 11 | 0.0 | 0.0 | 0.00 | 0.00 | 0.00 | 51 | 998.9 | |
| 20260504005016 | 12 | 0.0 | 0.0 | 0.00 | 0.00 | 0.00 | 49 | 998.8 | |
| 20260504004057 | 12 | 0.0 | 0.0 | 0.00 | 0.00 | 0.00 | 46 | 998.7 | |
| 20260504003017 | 13 | 0.0 | 0.0 | 0.00 | 0.00 | 0.00 | 44 | 998.5 | |
| 20260504002016 | 13 | 0.0 | 0.0 | 0.00 | 0.00 | 0.00 | 40 | 998.4 | |
| 20260504001016 | 14 | 0.0 | 0.0 | 0.00 | 0.00 | 0.00 | 38 | 998.3 | |
| 20260504000017 | 14 | 0.0 | 0.0 | 0.00 | 0.00 | 0.00 | 38 | 998.3 | |
| 20260503235036 | 15 | 0.0 | 1.6 | 0.00 | 0.00 | 0.00 | 36 | 998.2 | |
| 20260503234057 | 15 | 0.0 | 6.4 | 0.00 | 0.00 | 0.00 | 35 | 998.1 | |
| 20260503233036 | 15 | 180 | 1.6 | 11.3 | 0.00 | 0.00 | 0.00 | 35 | 997.9 |
| 20260503232016 | 16 | 180 | 1.6 | 12.9 | 0.00 | 0.00 | 0.00 | 34 | 998.0 |
| 20260503231037 | 16 | 0.0 | 1.6 | 0.00 | 0.00 | 0.00 | 34 | 997.9 | |
| 20260503230016 | 16 | 180 | 3.2 | 16.1 | 0.00 | 0.00 | 0.00 | 33 | 997.9 |
| 20260503225016 | 16 | 180 | 1.6 | 9.7 | 0.00 | 0.00 | 0.00 | 33 | 997.9 |
| 20260503224016 | 15 | 180 | 1.6 | 9.7 | 0.00 | 0.00 | 0.00 | 33 | 997.8 |
| 20260503223016 | 16 | 225 | 3.2 | 11.3 | 0.00 | 0.00 | 0.00 | 33 | 997.7 |
| 20260503222016 | 16 | 180 | 6.4 | 17.7 | 0.00 | 0.00 | 0.00 | 33 | 997.8 |
| 20260503221016 | 16 | 203 | 4.8 | 16.1 | 0.00 | 0.00 | 0.00 | 32 | 997.8 |
| 20260503220016 | 16 | 203 | 8.0 | 20.9 | 0.00 | 0.00 | 0.00 | 32 | 997.8 |
| 20260503215016 | 16 | 225 | 9.7 | 20.9 | 0.00 | 0.00 | 0.00 | 31 | 997.8 |
| 20260503214016 | 16 | 203 | 6.4 | 16.1 | 0.00 | 0.00 | 0.00 | 31 | 997.7 |
| 20260503213016 | 16 | 203 | 4.8 | 12.9 | 0.00 | 0.00 | 0.00 | 32 | 997.6 |
| 20260503212016 | 16 | 225 | 6.4 | 19.3 | 0.00 | 0.00 | 0.00 | 30 | 997.6 |
| 20260503211036 | 16 | 203 | 8.0 | 17.7 | 0.00 | 0.00 | 0.00 | 31 | 997.7 |
| 20260503210036 | 16 | 180 | 8.0 | 29.0 | 0.00 | 0.00 | 0.00 | 30 | 997.8 |
| 20260503205016 | 16 | 158 | 11.3 | 24.1 | 0.00 | 0.00 | 0.00 | 30 | 997.7 |
| 20260503204037 | 16 | 203 | 9.7 | 29.0 | 0.00 | 0.00 | 0.00 | 31 | 997.7 |
| 20260503203036 | 16 | 203 | 6.4 | 20.9 | 0.00 | 0.00 | 0.00 | 31 | 997.7 |
| 20260503202016 | 16 | 180 | 6.4 | 17.7 | 0.00 | 0.00 | 0.00 | 33 | 997.9 |
| 20260503201016 | 16 | 180 | 1.6 | 16.1 | 0.00 | 0.00 | 0.00 | 31 | 998.0 |
| 20260503200016 | 15 | 135 | 8.0 | 24.1 | 0.00 | 0.00 | 0.00 | 33 | 998.1 |
| 20260503195016 | 15 | 203 | 11.3 | 25.7 | 0.00 | 0.00 | 0.00 | 32 | 998.4 |
| 20260503194016 | 15 | 225 | 9.7 | 24.1 | 0.00 | 0.00 | 0.00 | 32 | 998.5 |
| 20260503193016 | 15 | 180 | 9.7 | 24.1 | 0.00 | 0.00 | 0.00 | 33 | 998.5 |
| 20260503192016 | 15 | 203 | 6.4 | 22.5 | 0.00 | 0.00 | 0.00 | 34 | 998.5 |
| 20260503191016 | 15 | 203 | 8.0 | 25.7 | 0.00 | 0.00 | 0.00 | 35 | 998.8 |
| 20260503190016 | 15 | 180 | 9.7 | 22.5 | 0.00 | 0.00 | 0.00 | 33 | 998.8 |
| 20260503185016 | 14 | 158 | 3.2 | 12.9 | 0.00 | 0.00 | 0.00 | 35 | 998.8 |
| 20260503184016 | 13 | 203 | 6.4 | 20.9 | 0.00 | 0.00 | 0.00 | 35 | 998.9 |
| 20260503183016 | 13 | 180 | 9.7 | 29.0 | 0.00 | 0.00 | 0.00 | 34 | 999.0 |
| 20260503182016 | 13 | 203 | 12.9 | 27.4 | 0.00 | 0.00 | 0.00 | 34 | 999.3 |
| 20260503181016 | 14 | 203 | 8.0 | 24.1 | 0.00 | 0.00 | 0.00 | 34 | 999.2 |
| 20260503180016 | 13 | 203 | 9.7 | 27.4 | 0.00 | 0.00 | 0.00 | 37 | 999.2 |
| 20260503175036 | 13 | 225 | 11.3 | 20.9 | 0.00 | 0.00 | 0.00 | 34 | 999.3 |
| 20260503174016 | 13 | 180 | 8.0 | 25.7 | 0.00 | 0.00 | 0.00 | 37 | 999.2 |
| 20260503173016 | 13 | 225 | 11.3 | 24.1 | 0.00 | 0.00 | 0.00 | 38 | 999.4 |
| 20260503172016 | 13 | 225 | 11.3 | 27.4 | 0.00 | 0.00 | 0.00 | 38 | 999.4 |
| 20260503171036 | 12 | 203 | 9.7 | 24.1 | 0.00 | 0.00 | 0.00 | 36 | 999.4 |